Hamilton Island, Australia

4:08 PM AEST on October 17, 2017 (GMT +1000)
Hamilton Island

Weather History for YBHM - December, 2013

Change the Weather History Date:

Saturday, December 7, 2013

  Actual Average Record
Temperature  
Mean Temperature 81 °F -  
Max Temperature 85 °F - - ()
Min Temperature 77 °F - - ()
Cooling Degree Days 16    
Growing Degree Days 31 (Base 50)    
Moisture  
Dew Point 72 °F    
Average Humidity 75    
Maximum Humidity 79    
Minimum Humidity 61    
Precipitation  
Precipitation 0.00 in - - ()
Sea Level Pressure  
Sea Level Pressure 29.96 in    
Wind  
Wind Speed 17 mph ()    
Max Wind Speed 26 mph    
Max Gust Speed -    
T = Trace of Precipitation, MM = Missing Value Source: Averaged Metar Reports

Daily Weather History Graph

Daily Weather History Graph

Search for Another Location

Airport or City:

Trip Planner

Search our weather history database for the weather conditions in past years. The results will help you decide how hot, cold, wet, or windy it might be!

Date:

Astronomy

Dec. 07, 2013 Rise Set
Actual Time 5:16 AM AEST 6:35 PM AEST
Civil Twilight 4:51 AM AEST 6:59 PM AEST
Nautical Twilight 4:22 AM AEST 7:28 PM AEST
Astronomical Twilight 3:52 AM AEST 7:58 PM AEST
Moon 9:26 AM AEST (12/7) 10:29 PM AEST (12/7)
Length of Visible Light 14h 08m
Length of Day
13h 19m
Waxing Crescent, 22% of the Moon is Illuminated
Dec 7
Waxing Crescent
Dec 10
First Quarter
Dec 17
Full
Dec 25
Last Quarter
Jan 1
New

Hourly Weather History & Observations

Time (AEST) Temp. Heat Index Dew Point Humidity Pressure Visibility Wind Dir Wind Speed Gust Speed Precip Events Conditions
12:00 AM 79 °F - 71 °F 72% 29.94 in - East 17.3 mph - -  
12:00 AM 78.8 °F - 71.6 °F 78% 29.95 in - East 17.3 mph - N/A   Unknown
12:30 AM 78.8 °F - 71.6 °F 78% 29.92 in - East 18.4 mph - N/A   Unknown
1:00 AM 78.8 °F - 71.6 °F 78% 29.92 in - East 16.1 mph - N/A   Unknown
1:30 AM 78.8 °F - 71.6 °F 78% 29.92 in - East 17.3 mph - N/A   Unknown
2:00 AM 78.8 °F - 71.6 °F 78% 29.92 in - East 18.4 mph - N/A   Unknown
2:30 AM 78.8 °F - 71.6 °F 78% 29.92 in - East 18.4 mph - N/A   Unknown
3:00 AM 78 °F - 71 °F 74% 29.92 in - East 16.1 mph - -  
3:00 AM 78.8 °F - 71.6 °F 78% 29.92 in - East 16.1 mph - N/A   Unknown
3:30 AM 78.8 °F - 69.8 °F 74% 29.92 in - East 15.0 mph - N/A   Unknown
4:00 AM 78.8 °F - 71.6 °F 78% 29.92 in - East 16.1 mph - N/A   Unknown
4:30 AM 78.8 °F - 71.6 °F 78% 29.92 in - ESE 17.3 mph - N/A   Unknown
5:00 AM 78.8 °F - 71.6 °F 78% 29.95 in - ESE 18.4 mph - N/A   Unknown
5:30 AM 78.8 °F - 71.6 °F 78% 29.95 in - ESE 16.1 mph - N/A   Unknown
6:00 AM 79 °F - 72 °F 73% 29.95 in - ESE 15.0 mph - -  
6:00 AM 78.8 °F - 71.6 °F 78% 29.95 in - ESE 15.0 mph - N/A   Unknown
6:30 AM 78.8 °F - 71.6 °F 78% 29.95 in - ESE 17.3 mph - N/A   Unknown
7:00 AM 78.8 °F - 71.6 °F 78% 29.98 in - ESE 16.1 mph - N/A   Unknown
7:30 AM 82.4 °F 87.2 °F 71.6 °F 70% 29.98 in - ESE 19.6 mph - N/A   Unknown
8:00 AM 82.4 °F 88.2 °F 73.4 °F 74% 29.98 in - SE 17.3 mph - N/A   Unknown
8:30 AM 80.6 °F 84.6 °F 71.6 °F 74% 30.01 in - SE 18.4 mph - N/A   Unknown
9:30 AM 84.2 °F 90.9 °F 73.4 °F 70% 30.01 in - SE 18.4 mph - N/A   Unknown
10:00 AM 84.2 °F 89.6 °F 71.6 °F 66% 30.01 in - SE 17.3 mph - N/A   Unknown
10:30 AM 84.2 °F 90.9 °F 73.4 °F 70% 30.01 in - SE 18.4 mph - N/A   Unknown
11:00 AM 84.2 °F 90.9 °F 73.4 °F 70% 30.01 in - SE 19.6 mph - N/A   Unknown
11:30 AM 84.2 °F 90.9 °F 73.4 °F 70% 30.01 in - SE 17.3 mph - N/A   Unknown
12:00 PM 85 °F - 73 °F 61% 29.99 in - SE 16.1 mph - -  
12:00 PM 84.2 °F 90.9 °F 73.4 °F 70% 29.98 in - SE 16.1 mph - N/A   Unknown
12:30 PM 84.2 °F 89.6 °F 71.6 °F 66% 29.98 in - SE 17.3 mph - N/A   Unknown
1:00 PM 82.4 °F 87.2 °F 71.6 °F 70% 29.98 in - SE 16.1 mph - N/A   Unknown
1:30 PM 82.4 °F 88.2 °F 73.4 °F 74% 29.95 in - SE 17.3 mph - N/A   Unknown
2:00 PM 84.2 °F 90.9 °F 73.4 °F 70% 29.95 in - SE 20.7 mph - N/A   Unknown
2:30 PM 84.2 °F 89.6 °F 71.6 °F 66% 29.95 in - ESE 18.4 mph - N/A   Unknown
3:00 PM 83 °F - 73 °F 65% 29.94 in - ESE 18.4 mph - -  
3:00 PM 82.4 °F 88.2 °F 73.4 °F 74% 29.95 in - ESE 18.4 mph - N/A   Unknown
3:30 PM 82.4 °F 88.2 °F 73.4 °F 74% 29.92 in - ESE 25.3 mph - N/A   Unknown
4:00 PM 80.6 °F 85.4 °F 73.4 °F 79% 29.92 in - ESE 25.3 mph - N/A   Unknown
4:30 PM 80.6 °F 84.6 °F 71.6 °F 74% 29.92 in - ESE 26.5 mph - N/A   Unknown
5:00 PM 78.8 °F - 71.6 °F 78% 29.95 in - ESE 26.5 mph - N/A   Unknown
5:30 PM 78.8 °F - 71.6 °F 78% 29.95 in - ESE 26.5 mph - N/A   Unknown
6:00 PM 80 °F - 71 °F 68% 29.96 in - ESE 20.7 mph - -  
6:00 PM 78.8 °F - 71.6 °F 78% 29.95 in - ESE 20.7 mph - N/A   Unknown
6:30 PM 78.8 °F - 71.6 °F 78% 29.95 in - ESE 24.2 mph - N/A   Unknown
7:00 PM 78.8 °F - 71.6 °F 78% 29.98 in - ESE 24.2 mph - N/A   Unknown
7:30 PM 78.8 °F - 71.6 °F 78% 29.98 in - ESE 23.0 mph - N/A   Unknown
8:00 PM 78.8 °F - 71.6 °F 78% 29.98 in - ESE 24.2 mph - N/A   Unknown
8:30 PM 78.8 °F - 71.6 °F 78% 29.98 in - ESE 24.2 mph - N/A   Unknown
9:00 PM 78 °F - 71 °F 73% 29.99 in - ESE 23.0 mph - -  
9:00 PM 78.8 °F - 71.6 °F 78% 29.98 in - ESE 23.0 mph - N/A   Unknown
9:30 PM 78.8 °F - 71.6 °F 78% 30.01 in - ESE 23.0 mph - N/A   Unknown
10:00 PM 78.8 °F - 71.6 °F 78% 30.01 in - ESE 24.2 mph - N/A   Unknown
10:30 PM 78.8 °F - 71.6 °F 78% 30.01 in - ESE 26.5 mph - N/A   Unknown
11:00 PM 78.8 °F - 71.6 °F 78% 30.01 in - ESE 25.3 mph - N/A   Unknown
11:30 PM 78.8 °F - 71.6 °F 78% 29.98 in - ESE 25.3 mph - N/A   Unknown